Location: Brede
(50.9167°N, 0.6000°E)
Time: 23:02:53
(UTC+00:00)

A-11 Canister half - Pass Details

Date: 04 December 2020
Orbit: 1524 x 1684 km, 47.3° (Epoch: 24 January)

Event Time Altitude Azimuth Distance (km) Brightness Sun altitude
Exits shadow 05:05:42 15° 227° (SW) 3,536 10.5 -23.7°
Maximum altitude 05:14:06 56° 155° (SSE) 1,941 9.6 -22.3°
Drops below altitude 10° 05:23:45 10° 81° (E) 3,895 12.1 -20.8°
Sets 05:26:55 0° 78° (ENE) 4,864 12.8 -20.4°
